Weather History for KLVK - March, 2013

Change the Weather History Date:

Tuesday, March 5, 2013

  Actual Average Record
Temperature  
Mean Temperature 51 °F 53 °F  
Max Temperature 61 °F 64 °F 80 °F (1986)
Min Temperature 40 °F 42 °F 25 °F (1971)
Degree Days  
Heating Degree Days 14 12  
Month to date heating degree days 50 60  
Since 1 July heating degree days 1990 2067  
Cooling Degree Days 0 0  
Month to date cooling degree days 0 0  
Year to date cooling degree days 0 0  
Growing Degree Days 1 (Base 50)    
Moisture  
Dew Point 40 °F    
Average Humidity 69    
Maximum Humidity 93    
Minimum Humidity 44    
Precipitation  
Precipitation 0.03 in 0.09 in 0.74 in (1987)
Month to date precipitation 0.03 0.48  
Year to date precipitation 1.15 6.52  
Since 1 July precipitation 9.44  
Sea Level Pressure  
Sea Level Pressure 29.98 in    
Wind  
Wind Speed 9 mph (SW)    
Max Wind Speed 23 mph    
Max Gust Speed 32 mph    
Visibility 10 miles    
Events Rain    
T = Trace of Precipitation, MM = Missing Value Source: NWS Daily Summary

Daily Weather History Graph

Daily Weather History Graph

Search for Another Location

Airport or City:

Trip Planner

Search our weather history database for the weather conditions in past years. The results will help you decide how hot, cold, wet, or windy it might be!

Date:

Astronomy

Mar. 05, 2013 Rise Set
Actual Time 6:32 AM PST 6:05 PM PST
Civil Twilight 6:06 AM PST 6:31 PM PST
Nautical Twilight 5:36 AM PST 7:01 PM PST
Astronomical Twilight 5:05 AM PST 7:32 PM PST
Moon 1:45 AM PST (3/5) 11:54 AM PST (3/5)
Length of Visible Light 12h 25m
Length of Day
11h 32m
Last Quarter, 39% of the Moon is Illuminated
Mar 5
Last Quarter
Mar 11
New
Mar 19
First Quarter
Mar 27
Full
Apr 2
Last Quarter

Hourly Weather History & Observations

Time (PST) Temp. Windchill Dew Point Humidity Pressure Visibility Wind Dir Wind Speed Gust Speed Precip Events Conditions
1:53 AM 43.0 °F - 39.9 °F 89% 30.06 in 10.0 mi Calm Calm - N/A   Clear
2:53 AM 41.0 °F 37.1 °F 39.0 °F 93% 30.06 in 10.0 mi West 5.8 mph - N/A   Partly Cloudy
3:36 AM 42.8 °F - 39.2 °F 87% 30.06 in 10.0 mi Calm Calm - N/A   Mostly Cloudy
3:53 AM 43.0 °F - 39.9 °F 89% 30.06 in 10.0 mi Calm Calm - N/A   Overcast
4:28 AM 44.6 °F - 41.0 °F 87% 30.06 in 10.0 mi Calm Calm - N/A   Overcast
5:26 AM 44.6 °F - 41.0 °F 87% 30.06 in 10.0 mi Calm Calm - N/A   Mostly Cloudy
5:53 AM 45.0 °F 42.6 °F 41.0 °F 86% 30.06 in 10.0 mi WNW 4.6 mph - N/A   Overcast
6:53 AM 45.0 °F 41.2 °F 41.0 °F 86% 30.06 in 10.0 mi West 6.9 mph - N/A   Overcast
7:53 AM 46.9 °F - 41.0 °F 80% 30.06 in 10.0 mi WNW 3.5 mph - N/A   Mostly Cloudy
8:00 AM 48.2 °F - 41.0 °F 76% 30.05 in 10.0 mi Calm Calm - N/A   Scattered Clouds
8:53 AM 50.0 °F - 42.1 °F 74% 30.04 in 10.0 mi SW 9.2 mph - N/A   Scattered Clouds
9:53 AM 53.1 °F - 39.0 °F 59% 30.02 in 10.0 mi Calm Calm - N/A   Clear
10:53 AM 57.0 °F - 37.0 °F 47% 30.01 in 10.0 mi NW 10.4 mph - N/A   Clear
11:53 AM 59.0 °F - 37.9 °F 46% 30.00 in 10.0 mi WSW 11.5 mph 20.7 mph N/A   Clear
12:53 PM 60.1 °F - 39.9 °F 47% 29.97 in 10.0 mi SW 15.0 mph 20.7 mph N/A   Clear
1:53 PM 61.0 °F - 41.0 °F 48% 29.95 in 10.0 mi WSW 11.5 mph 21.9 mph N/A   Scattered Clouds
2:53 PM 60.1 °F - 41.0 °F 49% 29.94 in 10.0 mi SW 13.8 mph - N/A   Clear
3:53 PM 59.0 °F - 39.0 °F 48% 29.94 in 10.0 mi SSW 10.4 mph - N/A   Clear
4:53 PM 55.9 °F - 39.0 °F 53% 29.92 in 10.0 mi SW 15.0 mph 18.4 mph N/A   Partly Cloudy
5:53 PM 52.0 °F - 37.9 °F 59% 29.90 in 10.0 mi SW 12.7 mph - N/A   Partly Cloudy
6:53 PM 51.1 °F - 39.0 °F 63% 29.89 in 10.0 mi WSW 8.1 mph - N/A   Partly Cloudy
7:53 PM 52.0 °F - 37.9 °F 59% 29.88 in 10.0 mi South 12.7 mph 19.6 mph N/A   Clear
8:53 PM 51.1 °F - 39.9 °F 66% 29.89 in 10.0 mi South 8.1 mph 17.3 mph N/A   Clear
9:53 PM 52.0 °F - 39.9 °F 63% 29.88 in 10.0 mi South 13.8 mph - 0.00 in Rain Light Rain
10:53 PM 51.1 °F - 39.9 °F 66% 29.85 in 10.0 mi South 13.8 mph 23.0 mph 0.03 in Rain Light Rain
11:53 PM 51.1 °F - 39.9 °F 66% 29.84 in 10.0 mi South 19.6 mph 32.2 mph 0.00 in   Clear